Location: Ku?niki
(51.4449°N, 17.8974°E)
Time: 02:25:21
(UTC+00:00)

POLYITAN 1 - Visible Passes

Search period start: 28 June 2022 00:00
Search period end: 08 July 2022 00:00
Orbit: 585 x 606 km, 98.0° (Epoch: 27 June)

Date Brightness Start Highest point End Pass type
(mag) Time Alt. Az. Time Alt. Az. Time Alt. Az.
28 Jun ? 00:47:53 10° NNE 00:52:08 85° ESE 00:55:49 14° SSW visible
28 Jun ? 23:23:43 10° ENE 23:25:52 14° E 23:28:01 10° ESE visible
29 Jun ? 00:57:47 10° NNE 01:02:02 78° WNW 01:05:48 13° SSW visible
29 Jun ? 23:33:07 10° NE 23:35:52 17° E 23:38:37 10° SE visible
30 Jun ? 01:07:42 10° N 01:11:54 63° WNW 01:15:47 12° SSW visible
30 Jun ? 23:42:40 10° NE 23:45:51 20° E 23:49:02 10° SE visible
01 Jul ? 01:17:39 10° N 01:21:46 51° WNW 01:25:46 11° SW visible
01 Jul ? 23:52:18 10° NE 23:55:50 25° E 23:59:04 11° SSE visible
02 Jul ? 01:27:36 10° N 01:31:35 41° WNW 01:35:35 10° SW visible
03 Jul ? 00:02:00 10° NNE 00:05:47 30° E 00:09:02 13° SSE visible
03 Jul ? 01:37:35 10° N 01:41:26 34° WNW 01:45:15 10° SW visible
04 Jul ? 00:11:45 10° NNE 00:15:43 37° E 00:19:00 14° SSE visible
04 Jul ? 01:47:35 10° N 01:51:14 28° WNW 01:54:52 10° WSW visible
05 Jul ? 00:21:31 10° NNE 00:25:38 46° E 00:28:57 15° S visible
06 Jul ? 00:31:20 10° NNE 00:35:32 58° E 00:38:54 15° S visible
07 Jul ? 00:41:09 10° NNE 00:45:25 72° ESE 00:48:51 15° S visible
07 Jul ? 23:17:31 10° ENE 23:19:01 12° E 23:20:31 10° ESE visible
